Location: Augsburg
(48.3836°N, 10.8929°E)
Time: 22:12:24
(UTC+01:00)

ISS - Pass Details

Date: 13 January 2018
Orbit: 401 x 407 km, 51.6° (Epoch: 17 January)

Event Time Altitude Azimuth Distance (km) Brightness Sun altitude
Exits shadow 05:34:32 34° 123° (ESE) 693 -2.2 -24.1°
Drops below altitude 10° 05:36:31 10° 118° (ESE) 1,462 -0.1 -23.8°
Sets 05:38:36 0° 117° (ESE) 2,320 1.2 -23.5°
